Location: Gniazdowice
(50.2124°N, 20.2673°E)
Time: 23:48:30
(UTC+00:00)

Cosmos 1315 Rocket - Pass Details

Date: 23 May 2024
Orbit: 515 x 542 km, 81.2° (Epoch: 22 June)

Event Time Altitude Azimuth Distance (km) Brightness Sun altitude
Exits shadow 00:04:51 28° 163° (SSE) 1,019 3.7 -16.5°
Maximum altitude 00:06:40 54° 98° (E) 646 3.2 -16.4°
Drops below altitude 10° 00:10:31 10° 20° (NNE) 1,789 6.8 -16.1°
Sets 00:12:43 0° 16° (NNE) 2,689 8.1 -16.0°
